SCP
0 0 0 0 0 0 0 0 0 0 0 0 0 0 0 0 0 0 0 0 0 0 0 0 0 0 0 0 1 1 1 1 1 1 1 0 0 0 0 0 0 0 0 0 0 0 0 0 0
0 0 0 0 0 0 0 0 0 0 0 0 0 0 0 0 0 0 0 0 0 1 0 0 0 0 0 0 1 1 1 1 1 1 1 0 0 0 0 0 0 0 0 0 0 0 0 0 0
0 0 0 0 0 0 0 0 0 0 0 0 0 0 0 0 0 0 0 0 1 1 1 1 1 1 1 1 1 1 1 1 1 1 1 1 0 0 0 0 0 0 0 0 0 0 0 0 0
0 0 0 0 0 0 0 0 0 0 0 0 0 0 0 0 0 0 0 1 1 1 1 1 1 1 1 1 1 1 1 1 1 1 1 1 0 0 0 0 0 0 0 0 0 0 0 0 0
0 0 0 0 0 0 0 0 0 0 0 0 0 0 0 0 0 0 0 1 1 1 1 1 1 1 1 1 1 1 1 1 1 1 1 1 0 0 0 0 0 0 0 0 0 0 0 0 0
0 0 0 0 0 0 0 0 0 0 0 0 0 0 0 0 1 1 1 1 1 1 1 1 1 1 1 1 1 1 1 1 1 1 1 1 0 0 0 0 0 0 0 0 0 0 0 0 0
0 0 0 0 0 0 0 0 0 0 0 0 0 0 0 1 1 1 1 1 1 1 1 1 1 1 1 1 1 1 1 1 1 1 1 1 0 0 0 0 0 0 0 0 0 0 0 0 0
0 0 0 0 0 0 0 0 0 0 0 0 0 0 0 1 1 1 1 1 1 1 1 1 1 1 1 1 1 1 1 1 1 1 1 0 0 0 0 0 0 0 0 0 0 0 0 0 0
0 0 0 0 0 0 0 0 0 0 0 0 0 0 1 1 1 2 2 1 1 1 1 1 1 1 1 1 1 1 1 1 1 1 1 0 0 0 0 0 0 0 0 0 0 0 0 0 0
0 0 0 0 0 0 0 0 0 0 0 0 0 0 1 1 1 1 1 1 1 1 1 1 1 1 1 1 1 1 1 1 1 1 1 0 0 0 0 0 0 0 0 0 0 0 0 0 0
0 0 0 0 0 0 0 0 0 0 0 0 0 1 1 1 1 1 1 1 1 1 1 1 1 1 1 1 1 1 1 1 1 1 1 0 0 0 0 0 0 0 0 0 0 0 0 0 0
0 0 0 0 0 0 0 0 0 0 0 0 0 1 1 1 1 1 1 1 1 1 1 1 1 1 1 1 1 1 1 1 1 1 0 0 0 0 0 0 0 0 0 0 0 0 0 0 0
0 0 0 0 0 0 0 0 0 0 0 0 0 1 1 1 1 1 1 1 1 1 1 1 1 1 1 1 1 1 1 1 1 1 0 0 0 0 0 0 0 0 0 0 0 0 0 0 0
0 0 0 0 0 0 0 0 0 0 0 0 0 1 1 1 1 1 1 1 1 1 1 1 1 1 1 1 1 1 1 1 1 1 0 0 0 0 0 0 0 0 0 0 0 0 0 0 0
0 0 0 0 0 0 0 0 0 0 0 0 0 1 1 1 1 1 1 1 1 1 1 1 1 1 1 1 1 1 1 1 1 0 0 0 0 0 0 0 0 0 0 0 0 0 0 0 0
0 0 0 0 0 0 0 0 0 0 0 0 0 1 1 1 1 1 1 1 1 1 1 1 1 1 1 1 1 1 1 1 0 0 0 0 0 0 0 0 0 0 0 0 0 0 0 0 0
0 0 0 0 0 0 0 0 0 0 0 0 0 1 1 1 1 1 1 1 1 1 1 1 1 1 1 1 1 1 0 0 0 0 0 0 0 0 0 0 0 0 0 0 0 0 0 0 0
0 0 -0 -0 0 0 0 0 0 0 0 0 0 1 1 1 1 1 1 1 1 1 1 1 1 1 1 1 1 0 0 0 0 0 0 0 0 0 0 0 0 0 0 0 0 0 0 0 0
0 0 0 0 0 0 0 0 0 0 0 0 1 1 1 1 1 1 1 1 1 1 1 1 1 1 1 1 1 0 0 0 0 0 0 0 0 0 0 0 0 0 0 0 0 0 0 0 0
0 0 0 0 0 0 0 0 0 0 0 0 1 1 1 1 1 1 1 1 1 1 1 1 1 1 1 1 1 0 0 0 0 0 0 0 0 0 0 0 0 0 0 0 0 0 0 0 0
0 0 0 0 0 0 0 0 0 0 0 0 0 0 0 0 0 0 0 1 1 1 1 1 1 1 1 1 1 1 0 0 0 0 0 0 0 0 0 0 0 0 0 0 0 0 0 0 0
0 0 0 0 0 0 0 0 0 0 0 0 0 0 0 0 0 0 0 0 1 1 1 0 0 0 1 1 1 1 0 0 0 0 0 0 0 0 0 0 0 0 0 0 0 0 0 0 0
0 0 0 0 0 0 0 0 0 0 0 0 0 0 0 0 0 0 0 0 0 0 0 0 0 0 0 1 0 0 0 0 0 0 0 0 0 0 0 0 0 0 0 0 0 0 0 0 0
0 0 0 0 0 0 0 0 0 0 0 0 0 0 0 0 0 0 0 0 0 0 0 1 1 0 0 0 0 0 0 0 0 0 0 0 0 0 0 0 0 0 0 0 0 0 0 0 0
0 0 0 0 0 0 0 0 0 0 0 0 0 0 0 0 0 0 0 0 0 0 0 0 0 0 0 0 0 0 0 0 0 0 0 0 0 0 0 0 0 0 0 0 0 0 0 0 0
0 0 0 0 0 0 0 0 0 0 0 0 0 0 0 0 0 0 0 0 0 0 0 0 0 0 0 0 0 0 0 0 0 0 0 0 0 0 0 0 0 0 0 0 0 0 0 0 0
0 0 0 0 0 0 0 0 0 0 0 0 0 0 0 0 0 0 0 0 0 0 0 0 0 0 0 0 0 0 0 0 0 0 0 0 0 0 0 0 0 0 0 0 0 0 0 0 0
0 0 0 0 0 0 0 0 0 0 0 0 0 0 0 0 0 0 0 0 0 0 0 0 0 0 0 0 0 0 0 0 0 0 0 0 0 0 0 0 0 0 0 0 0 0 0 0 0
-0 -0 -0 0 0 0 0 0 0 0 0 0 0 0 0 0 0 0 0 0 0 0 0 0 0 0 0 0 0 0 0 0 0 0 0 0 0 0 0 0 0 0 0 0 0 0 0 0 0
-0 -0 -0 0 0 0 0 0 0 0 0 0 0 0 0 0 0 0 0 0 0 0 0 0 0 0 0 0 0 0 0 0 0 0 0 0 0 0 0 0 0 0 0 0 0 0 0 0 0
Wind_Speed
7 1 3 3 6 4 3 5 3 2 2 1 2 3 4 4 4 3 3 7 13 15 14 16 18 18 18 18 18 18 19 19 19 18 18 18 17 17 16 15 15 14 14 14 13 13 14 14 14
3 1 4 5 5 1 6 5 4 3 2 1 1 1 1 1 1 1 2 4 12 14 12 14 19 18 19 19 19 18 19 19 19 18 18 17 17 16 16 15 15 14 14 14 13 13 13 13 13
1 2 5 5 4 6 6 5 3 2 1 2 1 0 1 2 1 2 3 8 10 11 11 14 20 17 18 18 19 18 18 18 18 18 17 17 16 15 15 15 14 14 13 13 13 13 12 12 12
3 5 5 4 5 6 6 4 2 3 2 1 2 2 1 0 1 3 8 12 11 9 9 13 19 17 17 17 18 18 18 17 17 17 16 16 15 14 14 14 13 13 12 12 12 12 11 11 10
5 5 3 1 5 5 5 6 4 3 3 3 4 3 1 1 2 6 11 13 12 10 7 10 17 17 17 17 16 16 17 16 15 15 15 15 14 13 13 13 12 12 11 11 11 11 10 9 8
6 5 4 4 6 5 5 4 2 3 3 3 4 3 2 1 4 7 10 10 11 11 9 9 16 18 17 17 16 15 15 14 14 14 14 14 13 12 12 12 11 11 10 10 10 9 9 7 6
6 5 5 4 3 5 5 3 2 3 4 4 4 4 2 2 3 8 9 8 9 10 10 8 9 13 16 16 15 14 14 13 13 13 13 13 13 12 11 10 10 10 9 9 8 8 7 6 5
5 6 3 3 4 6 4 2 2 2 4 1 3 5 5 5 6 9 9 8 8 8 9 9 8 8 8 10 15 16 14 14 14 14 13 13 12 11 11 9 8 9 8 8 7 6 5 4 3
5 6 3 5 6 6 3 2 3 2 1 1 2 3 4 9 9 10 9 7 8 9 8 8 8 8 8 8 12 13 14 13 13 11 13 11 5 5 6 8 8 8 8 7 6 5 4 3 1
5 4 8 6 6 5 4 4 4 2 3 3 2 1 5 10 10 11 11 11 12 12 11 8 9 9 9 8 7 6 6 6 6 5 6 4 4 3 5 6 9 8 7 6 6 5 3 2 1
5 7 6 7 8 5 5 5 4 4 6 8 8 8 10 10 9 10 11 11 12 13 13 11 10 10 9 6 6 5 4 4 4 5 5 4 3 3 3 2 3 3 4 2 2 2 1 1 1
4 7 5 6 4 4 5 4 4 7 11 7 8 10 12 13 13 12 12 12 10 12 14 13 12 10 9 7 7 6 5 5 5 5 6 4 3 3 3 2 2 2 1 2 1 1 2 2 3
4 5 5 7 8 6 5 7 5 7 9 4 5 9 13 13 12 9 8 10 11 12 12 13 13 12 10 7 7 7 6 6 6 5 6 6 5 4 3 2 2 3 2 2 2 2 3 3 3
4 4 6 7 7 4 5 4 3 8 5 2 6 9 11 12 11 8 8 9 11 11 12 11 13 12 10 8 7 7 6 6 5 5 7 7 5 4 4 3 3 3 3 3 3 3 3 3 2
2 4 8 5 3 3 2 3 3 6 2 2 4 6 7 7 8 9 10 9 9 10 10 11 12 11 11 9 9 7 6 6 6 6 6 7 6 5 4 3 4 4 3 3 2 2 1 2 2
3 3 4 7 4 3 2 5 5 6 1 2 2 3 4 5 5 5 6 6 7 8 8 10 11 11 10 8 8 6 6 6 5 5 5 7 7 6 4 4 4 4 3 3 2 2 1 2 2
4 2 4 8 4 2 2 3 6 5 2 1 0 1 2 2 1 2 4 6 7 8 8 8 7 8 9 7 6 4 5 5 4 4 4 5 6 6 5 4 3 3 2 2 3 2 2 2 2
4 3 4 6 5 3 1 1 4 5 2 2 2 3 3 3 1 1 1 3 5 6 7 8 6 6 6 5 4 2 3 3 3 3 4 5 4 5 4 3 2 2 2 2 2 2 2 2 2
4 4 8 9 4 1 1 3 5 5 5 4 4 4 5 3 4 4 3 1 3 5 7 7 7 5 5 4 4 4 3 3 2 2 3 3 3 4 4 3 2 2 2 2 3 2 1 1 1
5 5 6 6 1 2 4 4 5 7 6 5 5 5 5 5 6 7 6 5 3 4 4 5 5 6 5 4 3 2 3 2 2 2 2 2 3 3 3 4 3 2 2 1 1 1 1 1 1
5 6 6 5 2 2 4 3 4 6 7 8 7 7 7 6 6 7 7 6 6 5 4 4 4 4 4 5 3 3 3 3 2 3 3 5 5 5 5 4 3 3 2 1 1 0 1 1 1
6 7 6 4 1 2 2 1 0 4 6 8 8 8 8 8 8 8 8 8 7 6 5 5 5 4 3 4 4 5 5 4 3 3 5 7 8 8 7 6 6 5 4 4 3 3 1 0 0
7 4 3 2 3 1 1 3 2 2 4 6 7 8 9 9 9 9 9 8 8 8 7 7 7 6 4 5 6 6 5 5 5 6 9 8 8 10 9 9 8 7 6 6 6 6 5 3 2
3 3 4 4 4 1 1 3 2 1 3 5 5 7 8 9 10 10 10 10 10 10 9 8 8 8 7 9 9 9 9 8 8 8 8 7 7 8 10 10 9 9 8 8 7 7 8 6 7
3 5 4 4 3 2 1 3 1 2 4 7 7 7 8 9 9 10 11 11 11 11 10 10 10 10 10 12 12 11 11 10 10 8 8 8 7 7 9 9 9 9 9 9 8 9 9 9 9
1 6 6 3 3 2 2 2 2 4 6 8 8 8 9 9 9 10 11 10 10 11 11 11 12 12 11 13 13 12 12 9 8 10 9 9 8 8 8 10 11 10 10 10 9 9 9 9 9
2 2 4 6 3 1 0 2 2 5 7 8 9 9 9 9 9 10 11 11 11 12 12 12 13 13 13 13 13 13 12 12 13 12 11 9 9 9 10 11 11 11 11 10 9 8 8 8 9
2 5 4 5 4 1 1 4 5 8 8 8 8 9 9 9 9 10 10 10 10 11 11 12 13 14 14 14 13 12 13 13 13 12 13 12 11 10 11 11 11 11 10 9 9 8 8 9 8
1 2 4 4 4 5 3 4 2 7 9 10 9 9 9 9 9 9 9 10 10 11 11 12 13 14 14 14 14 14 13 13 13 13 12 11 10 11 11 10 10 10 10 9 9 9 8 9 8
1 3 5 4 3 3 3 3 2 6 9 11 11 10 9 9 9 9 9 9 10 11 11 11 12 13 13 13 13 13 12 12 13 12 11 10 11 10 10 10 10 10 9 9 9 9 8 8 8
Wind_Direction
312 323 114 79 57 52 252 252 240 273 263 231 172 156 160 159 169 242 307 144 136 144 151 154 155 153 148 141 135 131 130 129 129 129 129 129 130 130 131 131 130 129 127 126 124 123 122 122 122
296 127 77 69 99 190 261 252 248 234 229 161 150 130 132 160 96 53 42 123 137 144 147 152 156 155 150 145 140 136 134 133 131 131 131 131 131 132 132 132 131 130 129 129 128 125 123 123 125
308 75 95 91 147 188 233 242 239 283 219 167 180 120 162 164 167 147 145 134 134 142 145 155 157 156 152 148 144 140 137 136 135 134 134 133 133 133 133 134 133 133 132 132 130 128 127 126 126
72 53 60 103 215 220 228 261 292 313 301 197 166 170 179 75 179 145 139 136 133 140 148 158 158 157 153 151 149 145 141 140 138 137 136 135 135 135 136 136 136 136 136 135 133 130 130 129 129
59 81 88 229 242 248 249 266 264 252 232 207 171 181 211 258 106 118 137 142 142 142 149 160 158 157 156 155 153 149 146 144 142 141 140 139 139 139 140 140 141 141 141 138 136 133 132 130 128
60 73 122 231 253 264 267 257 274 253 236 212 173 171 220 263 109 117 131 139 143 146 150 157 162 161 161 160 156 153 150 148 146 145 145 144 144 144 145 146 147 148 147 145 142 139 136 132 127
109 113 173 210 244 264 259 245 238 249 245 222 179 166 204 218 132 116 116 125 136 148 152 156 162 166 166 163 160 158 155 152 151 150 151 151 151 151 153 152 154 155 156 155 152 148 144 139 133
121 112 161 215 225 252 257 279 258 226 247 233 155 184 210 194 148 121 116 122 134 150 158 159 161 160 160 163 167 165 161 159 158 158 159 159 159 160 161 159 165 167 168 168 165 162 157 151 145
88 84 197 221 211 245 259 283 287 271 217 231 222 224 208 149 146 133 126 132 148 160 162 164 163 158 155 159 171 169 168 167 166 166 168 164 157 160 165 172 179 181 182 183 181 182 178 173 168
95 148 224 221 211 235 266 260 259 270 262 240 233 216 144 151 158 156 153 160 168 173 172 173 169 163 159 168 166 162 167 169 166 164 167 156 154 169 172 187 193 194 196 200 202 206 207 189 147
152 192 229 237 231 237 261 260 223 199 245 225 211 190 168 170 175 172 167 169 178 175 174 178 174 168 168 168 161 163 162 164 165 168 163 153 154 168 171 171 203 207 206 204 221 227 209 197 201
182 238 230 252 237 222 232 246 231 208 234 231 203 182 173 178 183 185 175 174 177 178 179 178 177 173 174 170 168 167 169 172 175 176 168 162 169 182 182 186 196 194 186 192 206 222 240 245 237
220 257 255 251 268 244 241 241 240 246 257 260 186 177 182 187 190 189 177 176 175 184 183 180 179 178 176 173 173 175 179 181 179 177 180 176 181 191 193 198 203 207 197 199 213 228 244 253 257
246 259 281 280 272 247 221 255 223 265 279 245 170 180 187 191 189 181 179 182 182 186 184 181 181 179 177 179 179 180 182 181 178 184 189 187 188 189 195 205 210 217 211 207 210 223 239 254 264
281 301 312 296 284 269 184 293 251 290 301 228 178 181 186 192 189 192 188 182 183 186 184 179 181 180 182 183 184 182 183 182 187 191 191 193 193 193 195 202 213 219 210 207 212 226 241 257 260
3 6 318 298 305 292 153 267 312 323 209 221 196 171 179 190 194 198 187 178 176 174 179 180 184 183 185 185 186 184 183 185 190 188 187 195 198 194 193 204 219 214 196 194 199 203 217 251 254
19 344 293 302 314 353 103 271 321 348 111 152 182 132 144 147 151 198 187 179 175 173 167 169 173 178 185 184 182 182 178 187 187 182 185 192 197 197 194 208 219 198 186 192 201 190 189 219 233
274 284 283 284 299 9 34 334 347 12 72 110 87 78 70 62 23 355 146 173 169 160 151 157 161 166 169 167 159 164 172 182 174 181 189 184 189 188 189 199 198 177 174 182 176 184 190 208 214
231 251 272 274 271 32 64 53 23 32 51 60 62 67 69 48 32 35 37 87 131 136 142 149 152 152 151 163 171 177 191 176 163 166 158 166 167 164 167 173 156 158 173 184 175 171 184 213 164
219 255 269 288 323 129 106 79 54 49 61 64 61 53 53 43 30 35 39 45 80 118 127 132 148 146 151 168 178 163 141 135 133 106 89 91 110 124 140 135 130 132 132 129 151 163 170 197 174
237 213 239 251 347 79 118 67 69 62 62 58 51 47 45 48 40 35 40 45 55 65 82 109 117 125 143 151 136 113 111 110 113 91 75 56 63 72 81 94 98 90 96 91 56 3 200 217 198
269 235 221 224 166 250 161 159 65 89 68 56 47 42 41 44 47 46 44 42 45 53 67 77 79 87 106 132 138 144 148 146 130 110 89 65 58 60 64 71 75 72 65 59 42 38 27 83 226
236 254 220 201 170 121 36 133 247 129 90 66 53 48 45 44 47 48 46 43 40 41 52 63 68 60 60 88 113 111 102 107 105 99 88 75 65 60 60 62 65 65 61 56 50 50 53 48 46
238 54 55 54 82 71 260 144 226 182 136 108 78 59 52 50 49 48 45 44 42 41 47 57 65 59 60 68 75 89 100 103 104 97 93 83 72 62 58 62 63 63 62 61 60 62 63 63 64
85 86 30 6 26 254 291 117 193 92 109 116 105 79 63 55 53 51 46 43 43 42 47 55 65 62 62 69 70 76 86 94 95 96 90 85 75 65 58 64 64 63 62 64 64 64 61 61 65
196 142 157 193 210 271 4 118 134 107 104 107 102 91 76 63 57 58 53 49 46 46 48 55 62 63 65 71 72 72 75 79 79 79 82 80 77 72 67 69 70 67 66 66 65 65 63 62 63
166 188 167 137 142 110 178 138 145 139 124 116 106 93 81 70 62 60 58 55 52 51 50 55 66 67 64 69 74 73 76 79 80 79 78 79 79 79 72 71 71 67 65 65 67 66 63 62 61
173 151 106 122 147 190 240 197 192 175 156 135 117 103 90 79 69 64 60 59 57 57 56 58 64 69 68 68 71 74 73 77 79 80 77 75 73 74 73 69 68 67 64 63 67 65 60 63 57
107 115 112 113 146 152 203 249 205 176 160 143 125 109 99 91 81 72 67 61 61 60 59 61 64 68 69 71 74 75 73 75 77 76 75 75 74 71 71 70 70 67 63 62 66 64 60 62 56
207 168 148 150 191 164 164 249 25 132 132 129 121 113 104 96 90 84 76 70 66 65 65 66 67 70 70 73 76 76 75 75 76 75 73 73 73 70 70 69 68 66 63 60 62 64 60 59 55